This demonstration page uses our WeatherBlox Daily Observations layout. Learn more.

Hourly Observations for August 1, 2015

Temp ( °F °C ) Dew Point ( °F °C ) Humidity (%) Winds ( mph kmh ) Pressure ( in mb ) Visibility ( mi km ) Precip ( " mm )
12:15 am 00:15 Clear 66 19 61 16 83 83 Calm 30.06 1018 10 16.09344 0 0
12:35 am 00:35 Clear 64 18 61 16 88 88 Calm 30.06 1018 10 16.09344 0 0
12:55 am 00:55 Clear 66 19 61 16 83 83 Calm 30.06 1018 10 16.09344 0 0
1:15 am 01:15 Clear 64 18 61 16 88 88 E 6 9 30.06 1018 10 16.09344 0 0
1:35 am 01:35 Clear 64 18 61 16 88 88 SSE 3 6 30.06 1018 10 16.09344 0 0
1:55 am 01:55 Clear 64 18 61 16 88 88 SE 3 6 30.06 1018 10 16.09344 0 0
2:15 am 02:15 Clear 66 19 61 16 83 83 SSE 6 9 30.06 1018 10 16.09344 0 0
2:35 am 02:35 Clear 64 18 61 16 88 88 S 5 7 30.06 1018 10 16.09344 0 0
2:55 am 02:55 Clear 66 19 61 16 83 83 SSW 5 7 30.03 1017 10 16.09344 0 0
3:15 am 03:15 Clear 66 19 63 17 88 88 SSW 7 11 30.03 1017 10 16.09344 0 0
3:35 am 03:35 Clear 66 19 63 17 88 88 SSW 6 9 30.03 1017 10 16.09344 0 0
3:55 am 03:55 Clear 66 19 63 17 88 88 SW 6 9 30.03 1017 10 16.09344 0 0
4:15 am 04:15 Clear 68 20 63 17 83 83 SW 8 13 30.03 1017 10 16.09344 0 0
4:35 am 04:35 Clear 66 19 63 17 88 88 SW 6 9 30.03 1017 10 16.09344 0 0
4:55 am 04:55 Clear 66 19 63 17 88 88 SW 6 9 30 1016 10 16.09344 0 0
5:15 am 05:15 Clear 66 19 63 17 88 88 SW 5 7 30 1016 10 16.09344 0 0
5:35 am 05:35 Clear 68 20 61 16 78 78 SSW 5 7 30 1016 10 16.09344 0 0
5:55 am 05:55 Clear 66 19 61 16 83 83 Calm 30 1016 10 16.09344 0 0
6:15 am 06:15 Clear 63 17 59 15 88 88 ENE 10 17 30 1016 10 16.09344 0 0
6:35 am 06:35 Sunny 63 17 61 16 94 94 E 9 15 30 1016 10 16.09344 0 0
6:55 am 06:55 Sunny 64 18 61 16 88 88 E 8 13 30.03 1017 10 16.09344 0 0
7:15 am 07:15 Sunny 64 18 63 17 94 94 ENE 6 9 30.03 1017 10 16.09344 0 0
7:35 am 07:35 Sunny 66 19 63 17 88 88 E 8 13 30.06 1018 10 16.09344 0 0
7:55 am 07:55 Sunny 66 19 63 17 88 88 NNE 17 28 30.06 1018 10 16.09344 0 0
8:15 am 08:15 Partly Cloudy 66 19 61 16 83 83 NE 15 24 30.06 1018 10 16.09344 0 0
8:35 am 08:35 Sunny 68 20 61 16 78 78 ENE 20 31 30.06 1018 10 16.09344 0 0
8:55 am 08:55 Sunny 68 20 61 16 78 78 ENE 15 24 30.06 1018 10 16.09344 0 0
9:15 am 09:15 Sunny 70 21 59 15 69 69 ENE 20 31 30.03 1017 10 16.09344 0 0
9:35 am 09:35 Sunny 72 22 57 14 61 61 ENE 18 30 30.03 1017 10 16.09344 0 0
9:55 am 09:55 Sunny 73 23 57 14 57 57 E 16 26 30.03 1017 10 16.09344 0 0
10:15 am 10:15 Sunny 73 23 57 14 57 57 E 13 20 30.03 1017 10 16.09344 0 0
10:35 am 10:35 Sunny 75 24 57 14 54 54 E 17 28 30.03 1017 10 16.09344 0 0
10:55 am 10:55 Sunny 77 25 57 14 51 51 E 14 22 30 1016 10 16.09344 0 0
11:15 am 11:15 Sunny 79 26 57 14 48 48 ESE 14 22 30 1016 10 16.09344 0 0
11:35 am 11:35 Sunny 79 26 57 14 48 48 E 15 24 30 1016 10 16.09344 0 0
11:55 am 11:55 Sunny 81 27 57 14 45 45 E 15 24 30 1016 10 16.09344 0 0
12:15 pm 12:15 Sunny 81 27 59 15 48 48 ESE 12 19 30 1016 10 16.09344 0 0
12:35 pm 12:35 Sunny 81 27 57 14 45 45 E 12 19 29.97 1015 10 16.09344 0 0
12:55 pm 12:55 Sunny 82 28 59 15 45 45 ESE 12 19 29.94 1014 10 16.09344 0 0
1:15 pm 13:15 Sunny 84 29 61 16 45 45 E 10 17 29.94 1014 10 16.09344 0 0
1:35 pm 13:35 Sunny 84 29 61 16 45 45 ESE 8 13 29.94 1014 10 16.09344 0 0
1:55 pm 13:55 Sunny 84 29 61 16 45 45 E 9 15 29.94 1014 10 16.09344 0 0
2:15 pm 14:15 Sunny 84 29 61 16 45 45 ENE 8 13 29.94 1014 10 16.09344 0 0
2:35 pm 14:35 Sunny 84 29 61 16 45 45 ENE 10 17 29.94 1014 10 16.09344 0 0
2:55 pm 14:55 Sunny 84 29 61 16 45 45 NE 9 15 29.91 1013 10 16.09344 0 0
3:15 pm 15:15 Sunny 86 30 61 16 43 43 E 8 13 29.91 1013 10 16.09344 0 0
3:35 pm 15:35 Sunny 86 30 59 15 40 40 E 8 13 29.91 1013 10 16.09344 0 0
3:55 pm 15:55 Sunny 86 30 59 15 40 40 ESE 5 7 29.91 1013 10 16.09344 0 0
4:15 pm 16:15 Sunny 86 30 59 15 40 40 ESE 6 9 29.88 1012 10 16.09344 0 0
4:35 pm 16:35 Sunny 86 30 59 15 40 40 E 8 13 29.88 1012 10 16.09344 0 0
4:55 pm 16:55 Sunny 86 30 59 15 40 40 E 7 11 29.88 1012 10 16.09344 0 0
5:15 pm 17:15 Sunny 84 29 61 16 45 45 ENE 15 24 29.88 1012 10 16.09344 0 0
5:35 pm 17:35 Sunny 82 28 61 16 48 48 ENE 15 24 29.85 1011 10 16.09344 0 0
5:55 pm 17:55 Sunny 82 28 61 16 48 48 ENE 14 22 29.85 1011 10 16.09344 0 0
6:15 pm 18:15 Sunny 82 28 63 17 51 51 E 10 17 29.85 1011 10 16.09344 0 0
6:35 pm 18:35 Sunny 81 27 63 17 54 54 ENE 9 15 29.83 1010 10 16.09344 0 0
6:55 pm 18:55 Sunny 91 33 57 14 32 32 S 6 9 29.88 1012 10 16.09344 0 0
7:15 pm 19:15 Sunny 81 27 64 18 58 58 E 7 11 29.83 1010 10 16.09344 0 0
7:35 pm 19:35 Sunny 79 26 64 18 61 61 ESE 5 7 29.85 1011 10 16.09344 0 0
7:55 pm 19:55 Sunny 79 26 64 18 61 61 SE 6 9 29.83 1010 10 16.09344 0 0
8:15 pm 20:15 Sunny 77 25 64 18 65 65 SE 7 11 29.83 1010 10 16.09344 0 0
8:35 pm 20:35 Sunny 75 24 66 19 74 74 SSE 6 9 29.83 1010 10 16.09344 0 0
8:55 pm 20:55 Clear 75 24 66 19 74 74 S 6 9 29.83 1010 10 16.09344 0 0
9:15 pm 21:15 Clear 73 23 66 19 78 78 SSE 3 6 29.83 1010 10 16.09344 0 0
9:35 pm 21:35 Clear 73 23 66 19 78 78 SSE 3 6 29.85 1011 10 16.09344 0 0
9:55 pm 21:55 Clear 73 23 66 19 78 78 SSE 5 7 29.85 1011 10 16.09344 0 0
10:15 pm 22:15 Clear 73 23 66 19 78 78 S 6 9 29.85 1011 10 16.09344 0 0
10:35 pm 22:35 Clear 73 23 66 19 78 78 S 5 7 29.85 1011 10 16.09344 0 0
10:55 pm 22:55 Clear 73 23 64 18 74 74 SSW 6 9 29.85 1011 10 16.09344 0 0
11:15 pm 23:15 Clear 75 24 64 18 69 69 SSW 6 9 29.85 1011 10 16.09344 0 0
11:35 pm 23:35 Clear 75 24 63 17 65 65 SSW 5 7 29.85 1011 10 16.09344 0 0
11:55 pm 23:55 Clear 73 23 63 17 69 69 SSW 6 9 29.83 1010 10 16.09344 0 0

Powered by AerisWeather